FENGYUN 1C DEB, 31990

Orbit data source: Space-Track

FENGYUN 1C DEB, 31990 is space debris in SSO originally from a launch on Mon, 10 May 1999 UTC launched from the Taiyaun Space Center, China (TSC). Fengyun 1C debris stems from the Chinese weather satellite Fengyun-1C, which was intentionally destroyed by a Chinese anti-satellite missile in 2007. This event dramatically increased the amount of space debris, with thousands of trackable fragments posing hazards to satellites and human spaceflight. The Fengyun 1C debris cloud has become a focal point in discussions about space sustainability and the need for international regulations to prevent the creation of new debris.

Loading next visibility...
Identifier
31990, 1999-025CPT
Orbit
SSO
Country
Flag of CNCN / PRC
Related business
Manufacturer
Unknown
Mission
Spacecraft
Bus & Motor
Unknown
Mass
Unknown
Launch date (UTC)
1999-05-10 (27 years ago)
Launch vehicle
Unknown
Launch site
Taiyaun Space Center, China (TSC)
Object type
Payload
Rocket body
Debris
Shape & HBR
Unknown shape, 0.1 m
Radar Cross Section
Medium (>0.1 m² and <1 m²)

Expand to show TLE details & history
Last TLE update: 2 days ago

TLE from 2 days ago
0 FENGYUN 1C DEB
1 31990U 99025CPT 26206.77201575  .00000147  00000-0  21251-3 0  9993
2 31990  99.1466 218.9210 0259189 328.5603 207.9659 13.57310265658249
Epoch: 2026-07-25T18:31Z
TLE epoch observation values (Epoch: 2026-07-25T18:31:42.160Z)
Latitude
4.68251°
Longitude
178.26766°
Altitude
1,218.848 km
Speed
7.161 km/s
True Right ascension
02h 38m 41s
True Declination
4° 39' 23"
Sunlit
Object was in daylight at epoch
Visualization orbit readout
Latitude
Unknown
Longitude
Unknown
Altitude
Unknown
Speed
Unknown
Apparent Right ascension
Unknown
Apparent Declination
Unknown
Sunlit
N/A
Visualization observer readout
Local Sidereal Time
21:03:03
Azimuth
Unknown
Elevation
Unknown
Doppler factor
Unknown
Orbital elements
Apogee altitude
1,235.086 km
Perigee altitude
850.403 km
Semi-major axis
7,420.881 km
Eccentricity
0.02592
Inclination
99.1466°
RAAN
218.921°
Arg. of periapsis
328.5603°
True anomaly
206.612°
Mean anomaly
207.9659°
Eccentric anomaly
207.28513°
Mean motion
3.39516 °/min
Orbital period
106.03 mins
BSTAR
0.00021251
Loading maneuver chart data...
Computing Atmospheric mass density...
Loading historical data...
Loading historical data...
Loading historical data...
Loading historical data...
Loading historical data...
Loading historical data...
Loading historical data...

Documentation

Showing up to 5 results
|